Location: Alma
(38.7220°N, 88.9090°W)
Time: 15:28:42
(UTC-06:00)

Vanguard 2 - Pass Details

Date: 18 November 2019
Orbit: 553 x 2938 km, 32.9° (Epoch: 09 December)

Event Time Altitude Azimuth Distance (km) Brightness Sun altitude
Rises 12:30:18 0° 269° (W) 3,608 11.1 30.8°
Reaches altitude 10° 12:33:35 10° 259° (W) 2,354 10.4 30.7°
Maximum altitude 12:38:00 28° 200° (SSW) 1,189 11.8 30.5°
Drops below altitude 10° 12:41:32 10° 140° (SE) 1,858 10.0 30.3°
Sets 12:43:49 0° 127° (SE) 2,710 10.6 30.1°
